IK5NLA Vaiano IT current weather conditions

sailwx.info

Wind from 179 at 5 knots

Air temperature 13.9° C
Dewpoint 6.0° C

Last reported at 2015-Apr-01 09:50 UTC.
Time now 2015-Apr-01 10:40 UTC

Location: N 43°58' E 011°06'.
View on Google Maps.

See reports from other nearby stations

  
Tides and Currents Weather Stations Pressure Air Temp Water Temp Dewpoint Dewpoint Depression Visibility Wind Speed Wind Dir Waves Ship Positions
date/time (UTC)wind fromknots sea level pressurealtimeterstation pressurevisibilityair tempwater tempwave heightnotes
2015-Apr-01 09:50 179 5 13.9
2015-Apr-01 09:40 164 6 13.3
2015-Apr-01 09:35 182 5 13.3
2015-Apr-01 09:30 188 6 13.3
2015-Apr-01 09:25 277 6 12.8
2015-Apr-01 09:10 250 6 13.3
2015-Apr-01 09:05 222 4 13.9
2015-Apr-01 09:00 217 4 13.3
2015-Apr-01 08:55 229 4 12.8
2015-Apr-01 08:51 230 5 12.8
2015-Apr-01 08:45 192 5 12.8
2015-Apr-01 08:40 175 4 12.8
2015-Apr-01 08:35 231 2 12.8
2015-Apr-01 08:30 199 3 12.8
2015-Apr-01 08:25 105 3 12.2
2015-Apr-01 08:20 137 3 12.2
2015-Apr-01 08:15 198 4 12.2
2015-Apr-01 08:10 178 4 11.7
2015-Apr-01 08:05 175 3 11.7
2015-Apr-01 08:00 133 3 11.1
2015-Apr-01 07:55 123 4 11.1
2015-Apr-01 07:50 126 4 11.7
2015-Apr-01 07:45 106 3 12.2
2015-Apr-01 07:35 144 4 12.2
2015-Apr-01 07:30 161 3 12.2
2015-Apr-01 07:20 066 4 11.1
2015-Apr-01 07:10 231 3 11.7
2015-Apr-01 07:05 254 3 11.1
2015-Apr-01 07:00 168 2 11.1
2015-Apr-01 06:55 148 2 11.1
2015-Apr-01 06:50 164 2 11.1
2015-Apr-01 06:40 187 1 10.0
2015-Apr-01 06:30 254 1 9.4
2015-Apr-01 06:25 267 2 9.4
2015-Apr-01 06:15 270 1 8.9
2015-Apr-01 05:55 049 1 8.9
2015-Apr-01 05:50 240 2 8.9
2015-Apr-01 05:45 225 2 8.3
2015-Apr-01 05:40 304 1 8.3
2015-Apr-01 05:30 062 0 8.9
2015-Apr-01 05:25 176 0 8.9
2015-Apr-01 05:20 177 1 8.9
2015-Apr-01 05:10 326 2 8.3
2015-Apr-01 05:05 315 1 8.3
2015-Apr-01 05:00 294 2 8.9
2015-Apr-01 04:55 306 2 8.9
2015-Apr-01 04:40 304 1 8.9
2015-Apr-01 04:35 326 0 8.9
2015-Apr-01 04:25 315 1 8.9
2015-Apr-01 04:20 315 1 8.9
2015-Apr-01 04:10 269 3 9.4
2015-Apr-01 04:05 307 4 9.4
2015-Apr-01 03:55 268 1 8.9
2015-Apr-01 03:40 355 0 8.3
2015-Apr-01 03:30 334 1 8.9
2015-Apr-01 03:20 016 0 8.9
2015-Apr-01 03:15 015 0 9.4
2015-Apr-01 03:10 210 0 9.4
2015-Apr-01 02:45 239 6 10.6
2015-Apr-01 02:40 246 6 10.0
2015-Apr-01 02:30 236 6 10.0
2015-Apr-01 01:50 275 2 10.0
2015-Apr-01 01:45 238 2 10.0
2015-Apr-01 01:40 257 1 9.4
2015-Apr-01 01:30 327 2 9.4
2015-Apr-01 01:05 294 1 10.0
2015-Apr-01 01:00 294 1 10.0
2015-Apr-01 00:40 275 1 10.6
2015-Apr-01 00:35 269 1 10.6
2015-Apr-01 00:30 268 1 10.6
2015-Apr-01 00:25 268 1 10.6
2015-Apr-01 00:20 262 2 10.6
2015-Apr-01 00:00 280 2 10.6
2015-Mar-31 23:55 281 3 10.6
2015-Mar-31 23:45 265 2 10.0
2015-Mar-31 23:40 284 1 10.6
2015-Mar-31 23:35 284 1 10.6
2015-Mar-31 23:30 263 1 10.6
2015-Mar-31 23:25 244 1 10.6
2015-Mar-31 23:20 244 1 10.6
2015-Mar-31 23:15 244 2 10.6
2015-Mar-31 23:10 232 1 11.1
2015-Mar-31 23:05 198 2 11.1
2015-Mar-31 23:00 223 2 11.1
2015-Mar-31 22:45 255 1 11.1
2015-Mar-31 22:40 236 1 11.1
2015-Mar-31 22:35 234 1 11.1
2015-Mar-31 22:30 197 0 11.1
2015-Mar-31 22:25 203 1 11.1
2015-Mar-31 22:00 196 3 11.1
2015-Mar-31 21:35 191 5 11.7
2015-Mar-31 21:30 271 6 11.7
2015-Mar-31 21:10 223 4 11.7
2015-Mar-31 21:05 218 8 11.7
2015-Mar-31 20:55 261 11 11.7
2015-Mar-31 20:45 261 12 11.7
2015-Mar-31 20:35 248 13 11.7
2015-Mar-31 20:30 273 14 11.7
2015-Mar-31 20:25 248 14 11.7
2015-Mar-31 20:20 272 14 11.7
2015-Mar-31 20:15 241 13 11.7
2015-Mar-31 19:55 232 15 11.1
2015-Mar-31 19:40 238 14 11.1
2015-Mar-31 19:35 234 15 11.1
2015-Mar-31 19:20 255 15 11.1
2015-Mar-31 19:10 256 13 10.6
2015-Mar-31 19:05 266 11 10.6
2015-Mar-31 19:00 283 10 10.6
2015-Mar-31 18:50 246 10 10.6
2015-Mar-31 18:45 199 9 10.6
2015-Mar-31 18:35 250 9 10.6
2015-Mar-31 18:30 227 8 11.1
2015-Mar-31 18:25 183 9 11.1
2015-Mar-31 18:20 239 9 11.1
2015-Mar-31 18:15 211 9 11.1
2015-Mar-31 18:10 175 10 11.1
2015-Mar-31 18:05 199 10 11.1
2015-Mar-31 18:00 190 11 11.1
2015-Mar-31 17:55 190 11 11.1
2015-Mar-31 17:50 196 12 11.1
2015-Mar-31 17:35 207 12 11.1
2015-Mar-31 17:30 181 12 11.1
2015-Mar-31 17:25 254 10 11.1
2015-Mar-31 17:20 200 10 11.7
2015-Mar-31 17:15 227 11 11.7
2015-Mar-31 17:05 178 11 11.7
2015-Mar-31 17:00 198 12 11.7
2015-Mar-31 16:55 247 10 11.7
2015-Mar-31 16:50 186 8 11.7
2015-Mar-31 16:45 171 8 11.7
2015-Mar-31 16:40 203 9 11.7
2015-Mar-31 16:35 259 9 11.7
2015-Mar-31 16:25 211 8 11.7
2015-Mar-31 16:20 240 7 11.7
2015-Mar-31 16:15 271 7 11.7
2015-Mar-31 16:10 248 8 11.7
2015-Mar-31 16:00 227 9 12.2
2015-Mar-31 15:50 246 8 12.2
2015-Mar-31 15:45 252 9 12.2
2015-Mar-31 15:40 234 9 12.2
2015-Mar-31 15:35 246 8 12.2
2015-Mar-31 15:25 231 9 12.2
2015-Mar-31 15:20 181 13 12.2
2015-Mar-31 15:15 269 13 12.2
2015-Mar-31 15:10 188 11 12.2
2015-Mar-31 15:00 210 12 12.2
2015-Mar-31 14:55 201 9 12.8
2015-Mar-31 14:45 128 11 12.8
2015-Mar-31 14:40 182 12 12.8
2015-Mar-31 14:30 257 13 12.8
2015-Mar-31 14:25 252 14 12.8
2015-Mar-31 14:20 214 15 12.8
2015-Mar-31 14:16 192 15 12.8
2015-Mar-31 14:10 263 15 12.8
2015-Mar-31 14:05 261 14 12.8
2015-Mar-31 14:00 294 13 12.8
2015-Mar-31 13:55 279 15 12.8
2015-Mar-31 13:50 267 16 12.8
2015-Mar-31 13:40 216 17 13.3
2015-Mar-31 13:35 239 16 13.3
2015-Mar-31 13:30 241 14 13.3
2015-Mar-31 13:20 165 14 13.3
2015-Mar-31 13:15 236 13 13.3
2015-Mar-31 13:10 233 12 13.3
2015-Mar-31 13:05 216 10 13.3
2015-Mar-31 12:55 217 13 13.3
2015-Mar-31 12:50 200 13 13.3
2015-Mar-31 12:40 285 15 13.3
2015-Mar-31 12:35 280 14 13.3
2015-Mar-31 12:30 261 15 13.3
2015-Mar-31 12:25 248 15 13.9
2015-Mar-31 12:20 249 18 13.9
2015-Mar-31 12:15 269 21 13.9
2015-Mar-31 12:10 246 19 13.9
2015-Mar-31 12:05 257 16 13.9
2015-Mar-31 12:00 240 14 13.9
2015-Mar-31 11:55 275 13 14.4
2015-Mar-31 11:50 188 13 14.4
2015-Mar-31 11:40 205 13 13.9
2015-Mar-31 11:35 250 14 13.9
2015-Mar-31 11:30 261 13 13.9
2015-Mar-31 11:25 184 11 13.9
2015-Mar-31 11:20 283 11 13.9
2015-Mar-31 11:15 242 8 13.3
2015-Mar-31 11:10 260 12 13.3
2015-Mar-31 10:55 260 11 12.8
2015-Mar-31 10:50 236 11 12.8
2015-Mar-31 10:45 288 12 12.8
2015-Mar-31 10:40 276 11 12.8
2015-Mar-31 10:35 237 9 12.8
2015-Mar-31 10:30 243 11 12.8
2015-Mar-31 10:25 244 13 12.8
2015-Mar-31 10:20 242 14 12.2
2015-Mar-31 10:15 207 14 12.2
2015-Mar-31 10:10 213 15 12.2
2015-Mar-31 10:05 219 14 12.2
2015-Mar-31 10:00 182 16 11.7
2015-Mar-31 09:55 201 17 11.7
2015-Mar-31 09:50 227 15 11.7
2015-Mar-31 09:45 183 13 11.7
2015-Mar-31 09:40 211 13 11.1
2015-Mar-31 09:30 196 12 10.6
2015-Mar-31 09:25 262 9 10.0
2015-Mar-31 09:10 215 7 10.0
2015-Mar-31 09:00 279 7 10.0
2015-Mar-31 08:55 211 6 10.0
2015-Mar-31 08:50 205 7 10.0
2015-Mar-31 08:45 171 8 10.0
2015-Mar-31 08:35 210 7 10.0
2015-Mar-31 08:30 252 6 10.0
2015-Mar-31 08:25 220 6 10.0
2015-Mar-31 08:20 246 6 10.6
2015-Mar-31 08:15 184 7 10.6
2015-Mar-31 08:10 279 6 11.1
2015-Mar-31 08:05 199 5 11.7
2015-Mar-31 08:00 278 6 11.1
2015-Mar-31 07:55 279 8 10.6
2015-Mar-31 07:50 238 9 10.6
2015-Mar-31 07:35 257 6 11.7
2015-Mar-31 07:25 289 7 11.1
2015-Mar-31 07:20 259 6 11.1
2015-Mar-31 07:15 229 6 11.1
2015-Mar-31 07:10 323 6 11.1
2015-Mar-31 07:05 238 4 11.1
2015-Mar-31 07:00 215 7 10.6
2015-Mar-31 06:55 288 10 10.0
2015-Mar-31 06:50 266 9 10.0
2015-Mar-31 06:40 283 6 9.4
2015-Mar-31 06:35 268 4 9.4
2015-Mar-31 06:25 311 2 9.4
2015-Mar-31 06:15 134 2 9.4
2015-Mar-31 06:10 228 3 9.4
2015-Mar-31 06:05 261 4 9.4
2015-Mar-31 05:55 308 4 9.4
2015-Mar-31 05:40 222 3 9.4
2015-Mar-31 05:35 271 3 8.9
2015-Mar-31 05:30 277 4 8.9
2015-Mar-31 05:20 238 6 8.9
2015-Mar-31 05:15 259 5 8.9
2015-Mar-31 05:05 242 4 8.9
2015-Mar-31 05:00 227 2 8.9
2015-Mar-31 04:55 227 1 8.3
2015-Mar-31 04:50 283 1 8.3
2015-Mar-31 04:45 286 1 8.3
2015-Mar-31 04:35 313 1 8.3
2015-Mar-31 04:10 330 0 8.9
2015-Mar-31 03:55 330 8.9
2015-Mar-31 03:50 330 8.9
2015-Mar-31 03:40 329 0 8.9
2015-Mar-31 03:35 329 1 8.9
2015-Mar-31 03:30 329 0 8.9
2015-Mar-31 03:25 330 8.9
2015-Mar-31 03:20 331 0 8.9
2015-Mar-31 03:15 331 0 8.9
2015-Mar-31 03:10 331 0 8.9
2015-Mar-31 03:05 330 0 8.9
2015-Mar-31 03:00 330 1 8.9
2015-Mar-31 02:55 330 1 8.9
2015-Mar-31 02:50 329 0 8.9
2015-Mar-31 02:45 049 0 8.9
2015-Mar-31 02:40 049 0 8.9
2015-Mar-31 02:35 049 0 8.9
2015-Mar-31 02:30 053 0 9.4
2015-Mar-31 02:25 044 0 9.4
2015-Mar-31 02:20 246 0 9.4
2015-Mar-31 02:10 257 1 9.4
2015-Mar-31 02:05 274 2 9.4
2015-Mar-31 02:00 289 3 9.4
2015-Mar-31 01:50 323 9.4
2015-Mar-31 01:45 324 0 9.4
2015-Mar-31 01:40 324 0 9.4
2015-Mar-31 01:35 324 0 9.4
2015-Mar-31 01:25 324 0 9.4
2015-Mar-31 01:15 323 0 9.4
2015-Mar-31 01:10 323 1 9.4
2015-Mar-31 01:05 323 0 8.9
2015-Mar-31 01:00 323 8.9
2015-Mar-31 00:50 323 1 8.9
2015-Mar-31 00:40 323 1 8.9
2015-Mar-31 00:35 323 1 8.9
2015-Mar-31 00:30 322 0 8.9
2015-Mar-31 00:20 323 0 9.4
2015-Mar-31 00:10 323 2 9.4
2015-Mar-31 00:05 325 1 8.9
2015-Mar-30 23:55 355 1 8.9
2015-Mar-30 23:50 355 2 8.9
2015-Mar-30 23:45 355 3 8.9
2015-Mar-30 23:40 348 3 8.9
2015-Mar-30 23:30 336 3 9.4
2015-Mar-30 23:25 350 3 9.4
2015-Mar-30 23:20 333 3 8.9
2015-Mar-30 23:15 334 2 8.9
2015-Mar-30 23:10 334 1 9.4
2015-Mar-30 23:05 355 0 9.4
2015-Mar-30 22:55 355 1 9.4
2015-Mar-30 22:45 110 0 9.4
2015-Mar-30 22:35 047 0 9.4
2015-Mar-30 22:30 023 0 9.4
2015-Mar-30 22:25 180 1 9.4
2015-Mar-30 22:10 005 1 9.4
2015-Mar-30 22:05 005 2 9.4
2015-Mar-30 22:00 014 2 9.4
2015-Mar-30 21:45 334 1 10.0
2015-Mar-30 21:40 063 0 10.0
2015-Mar-30 21:30 360 1 10.0
2015-Mar-30 21:25 360 0 10.0
2015-Mar-30 21:15 136 0 10.6
2015-Mar-30 21:10 136 2 10.6
2015-Mar-30 21:05 292 5 10.6
2015-Mar-30 21:00 295 6 10.6
2015-Mar-30 20:55 291 5 10.6
2015-Mar-30 20:45 288 3 10.6
2015-Mar-30 20:35 280 3 10.6
2015-Mar-30 20:25 271 4 10.6
2015-Mar-30 20:15 261 2 10.6
2015-Mar-30 20:10 261 2 10.6
2015-Mar-30 20:05 276 2 10.6
2015-Mar-30 20:00 276 3 10.6
2015-Mar-30 19:55 275 2 10.6
2015-Mar-30 19:50 273 2 10.6
2015-Mar-30 19:45 271 2 10.6
2015-Mar-30 19:20 220 1 10.6
2015-Mar-30 19:10 284 0 10.6
2015-Mar-30 19:00 267 1 10.6
2015-Mar-30 18:50 188 2 10.6
2015-Mar-30 18:45 211 2 10.6
2015-Mar-30 18:35 209 1 10.6
2015-Mar-30 18:30 241 2 11.1
2015-Mar-30 18:25 196 2 11.1
2015-Mar-30 18:20 167 1 11.1
2015-Mar-30 18:15 302 1 10.6
2015-Mar-30 18:10 325 2 10.6
2015-Mar-30 18:05 161 3 10.6
2015-Mar-30 17:50 200 3 11.1
2015-Mar-30 17:40 219 5 11.1
2015-Mar-30 17:35 276 5 11.1
2015-Mar-30 17:25 242 4 11.1
2015-Mar-30 17:20 214 4 11.1
2015-Mar-30 17:15 240 5 11.1
2015-Mar-30 17:10 133 5 11.1
2015-Mar-30 17:05 249 6 11.1
2015-Mar-30 17:00 176 6 11.1
2015-Mar-30 16:40 200 6 11.7
2015-Mar-30 16:35 223 4 11.7
2015-Mar-30 16:15 186 6 11.7
2015-Mar-30 16:10 215 6 11.7
2015-Mar-30 16:05 240 5 11.7
2015-Mar-30 15:45 224 8 11.7
2015-Mar-30 15:35 258 9 11.7
2015-Mar-30 15:30 263 10 11.7
2015-Mar-30 15:25 241 11 11.7
2015-Mar-30 15:20 226 12 11.7
2015-Mar-30 15:15 274 13 11.7
2015-Mar-30 15:05 252 12 11.7
2015-Mar-30 15:00 241 12 11.7
2015-Mar-30 14:40 254 13 11.7
2015-Mar-30 14:35 231 13 11.7
2015-Mar-30 14:25 238 13 11.7
2015-Mar-30 14:20 244 13 11.7
2015-Mar-30 14:16 259 14 11.7
2015-Mar-30 14:10 246 14 11.7
2015-Mar-30 14:05 246 16 11.7
2015-Mar-30 14:00 270 16 11.7
2015-Mar-30 13:55 254 15 11.1
2015-Mar-30 13:50 265 16 11.1
2015-Mar-30 13:40 248 13 11.1
2015-Mar-30 13:35 224 13 11.1
2015-Mar-30 13:30 267 14 11.1
2015-Mar-30 13:20 236 10 11.1
2015-Mar-30 13:05 230 12 11.1
2015-Mar-30 13:00 237 11 11.1
2015-Mar-30 12:55 244 9 11.1
2015-Mar-30 12:40 232 9 11.1
2015-Mar-30 12:30 212 9 11.1
2015-Mar-30 12:25 277 13 10.6
2015-Mar-30 12:20 228 13 10.6
2015-Mar-30 12:15 260 12 10.0
2015-Mar-30 12:10 264 10 10.0
2015-Mar-30 12:05 281 7 9.4
2015-Mar-30 12:00 202 8 9.4
2015-Mar-30 11:55 198 11 9.4
2015-Mar-30 11:40 275 6 9.4
2015-Mar-30 11:35 259 7 9.4
2015-Mar-30 11:30 197 7 9.4
2015-Mar-30 11:25 217 6 9.4
2015-Mar-30 11:20 196 6 9.4
2015-Mar-30 11:15 277 6 9.4
2015-Mar-30 11:10 239 9 9.4
2015-Mar-30 11:05 203 9 9.4
2015-Mar-30 11:00 279 7 9.4
2015-Mar-30 10:55 226 7 9.4
2015-Mar-30 10:45 215 6 8.9
2015-Mar-30 10:40 228 8 8.9
2015-Mar-30 10:35 203 9 8.9
2015-Mar-30 10:30 255 11 8.9
2015-Mar-30 10:25 268 9 8.9
2015-Mar-30 10:20 242 7 8.9